Overview Statistics Trail Chart Weather Telemetry Raw packets
 

This is the latest recevied weather packets stored in our database for station/object KG7FOQ-13. If no packets are shown the sender has not sent any weather packets the latest 10 day(s).

<< 102 103 104 105 106 107 108 >>
Time Temp. Humidity Pressure Rain* Wind** Luminosity Snow
1787839748 16.67° C 75% 1019.3 hPa 0 mm - - -
1787839146 16.11° C 81% 1019.4 hPa 0 mm - - -
1787838845 16.11° C 81% 1019.3 hPa 0 mm - - -
1787838544 16.11° C 80% 1019 hPa 0 mm - - -
1787838244 16.11° C 77% 1018.9 hPa 0 mm - - -
1787837943 16.11° C 77% 1018.6 hPa 0 mm - - -
1787837714 16.67° C 75% 1018.6 hPa 0 mm - - -
1787837643 16.67° C 75% 1018.6 hPa 0 mm - - -
1787837342 16.67° C 75% 1018.5 hPa 0 mm - - -
1787837090 16.11° C 76% 1018.4 hPa 0 mm - - -
1787837042 16.11° C 76% 1018.4 hPa 0 mm - - -
1787836440 16.11° C 79% 1018.1 hPa 0 mm - - -
1787836139 15.56° C 78% 1017.8 hPa 0 mm - - -
1787835839 15.56° C 79% 1017.4 hPa 0 mm - - -
1787835538 16.11° C 81% 1017.8 hPa 0 mm - - -
1787835238 16.11° C 81% 1017.8 hPa 0 mm - - -
1787834937 15.56° C 81% 1017.7 hPa 0 mm - - -
1787834637 16.11° C 81% 1017.5 hPa 0 mm - - -
1787834337 16.11° C 82% 1017.5 hPa 0 mm - - -
1787833734 16.11° C 80% 1017.4 hPa 0 mm - - -
1787833434 16.11° C 79% 1017.7 hPa 0 mm - - -
1787833133 16.67° C 79% 1017.7 hPa 0 mm - - -
1787832833 16.11° C 79% 1017.5 hPa 0 mm - - -
1787832532 16.11° C 79% 1017.4 hPa 0 mm - - -
1787832232 16.11° C 78% 1017.4 hPa 0 mm - - -

* Rain latest hour (hover to see other rain measurements)
** Current wind speed in m/s (hover to see current wind gust speed)